Lunenburg, Nouvelle Écosse

Conditions des dernières 24 heures

Ce tableau est un sommaire des conditions météo couvrant les dernières 24 heures. Ce sommaire inclut les paramètres suivants: température, humidité, point de rosée, direction et vitesse du vent, pression barométrique, facteur de refroidissement éolien ou indice humidex.
Date / Heure
(HAA)
Conditions Temp (°C) Humidite (%) Point de rose (°C) Vent (km/h) Pression (kPa) Visibilité (km)
01 octobre 2014
15:00 N.D. 15   93 14 ESE 23 101,9 N.D.
14:00 N.D. 16   84 14 ENE 12 101,9 N.D.
13:00 N.D. 16   86 14 NE 14 101,9 N.D.
12:00 N.D. 16   88 14 ENE 20 102,0 N.D.
11:00 N.D. 16   91 15 ENE 14 102,0 N.D.
10:00 N.D. 16   93 15 NE 12 101,9 N.D.
9:00 N.D. 16   95 15 ENE 8 101,9 N.D.
8:00 N.D. 16   96 15 ENE 9 101,8 N.D.
7:00 N.D. 15   96 15 ENE 6 101,8 N.D.
6:00 N.D. 15   97 15 NE 6 101,8 N.D.
5:00 N.D. 15   96 15 ENE 7 101,7 N.D.
4:00 N.D. 15   96 15 E 10 101,7 N.D.
3:00 N.D. 15   97 15 NE 7 101,8 N.D.
2:00 N.D. 15   97 15 N 8 101,8 N.D.
1:00 N.D. 15   97 15 NE 10 101,8 N.D.
0:00 N.D. 16   97 15 ENE 11 101,8 N.D.
30 septembre 2014
23:00 N.D. 16   97 15 ENE 11 101,8 N.D.
22:00 N.D. 16   96 15 ENE 9 101,8 N.D.
21:00 N.D. 16   96 15 E 12 101,8 N.D.
20:00 N.D. 16   96 15 ESE 16 101,7 N.D.
19:00 N.D. 16   96 15 E 15 101,7 N.D.
18:00 N.D. 16   96 16 E 13 101,7 N.D.
17:00 N.D. 16   96 16 E 10 101,7 N.D.
16:00 N.D. 16   97 16 ESE 18 101,7 N.D.
15:00 N.D. 16   97 16 ESE 16 101,7 N.D.
N.D.
non disponible
 ↑ 
température la plus haute
 ↓ 
température la plus basse

Si vous désirez plus de données historiques sur les conditions météo, s.v.p. visitez Données climatologiques en ligne.